Vorticity
nan nan nan nan nan nan nan nan nan nan nan nan nan nan nan nan nan nan nan nan nan nan nan nan nan nan nan nan nan nan nan nan nan nan nan nan nan nan nan nan nan nan nan nan nan
nan 7 6 6 5 7 7 7 7 6 6 5 5 5 6 13 23 17 16 6 -4 2 5 7 4 7 5 5 7 2 -2 4 2 -1 3 4 1 3 3 4 6 0 -2 9 nan
nan 6 6 6 7 6 6 7 7 7 7 6 6 6 6 17 20 17 20 20 8 3 4 6 8 7 9 5 5 4 -1 -1 3 3 0 -2 2 6 7 7 11 10 8 15 nan
nan 6 6 6 6 6 6 7 7 6 7 7 6 6 16 19 8 3 5 18 23 12 6 5 6 12 14 13 4 5 8 4 4 5 3 3 3 4 6 5 3 6 9 9 nan
nan 5 6 6 7 7 7 7 7 7 8 7 6 9 18 9 2 -8 4 6 10 15 9 7 6 7 5 12 12 9 6 5 7 7 5 4 4 6 5 7 6 3 4 8 nan
nan 7 7 7 7 8 9 8 7 7 7 8 9 11 8 2 7 6 2 6 7 5 6 4 5 3 11 11 5 9 9 7 7 6 6 7 4 4 9 5 1 5 8 11 nan
nan 6 6 7 8 9 8 7 6 6 7 9 14 14 10 8 -1 1 5 6 5 8 12 10 6 4 6 7 8 5 7 12 10 8 5 10 4 7 5 4 9 7 6 5 nan
nan 6 5 6 7 6 7 6 7 7 10 13 18 15 11 16 10 5 5 7 9 6 6 3 9 12 5 10 12 8 11 11 8 10 10 12 6 12 10 6 3 2 7 7 nan
nan 7 7 7 8 8 9 7 9 14 18 19 14 8 6 16 16 14 15 8 11 12 12 11 9 5 6 10 14 19 7 6 7 13 10 2 8 3 3 9 6 7 8 8 nan
nan 7 7 7 8 10 12 21 27 28 21 11 -0 4 0 4 4 19 17 6 10 10 10 13 13 6 2 9 7 8 12 7 6 9 13 2 7 1 7 12 11 14 14 11 nan
nan 9 8 9 10 12 18 20 22 19 6 -3 8 -5 -7 -1 1 14 6 6 5 8 11 7 8 15 6 -5 -1 5 8 5 14 5 8 10 11 10 13 13 11 9 14 14 nan
nan 8 9 9 12 20 19 4 5 9 7 6 10 7 10 1 3 -0 4 9 8 7 6 10 9 6 7 9 6 3 4 7 7 14 10 12 13 13 8 6 14 9 8 10 nan
nan 7 8 12 25 23 7 2 9 14 13 19 27 28 18 13 8 8 7 8 5 5 8 4 10 12 8 7 11 8 8 5 2 5 6 12 10 9 13 9 10 12 9 9 nan
nan 8 8 21 22 9 4 6 15 15 10 4 12 24 28 25 15 17 15 13 8 7 7 5 12 11 12 10 7 4 12 6 9 7 9 3 10 11 13 14 10 8 8 6 nan
nan 8 13 22 14 3 3 10 15 13 3 6 18 4 3 12 18 21 25 18 11 9 8 3 6 14 13 12 7 9 6 6 12 8 9 5 11 12 10 6 12 15 12 14 nan
nan 7 19 24 12 3 4 12 12 8 4 11 11 8 13 8 6 11 17 16 13 9 4 14 9 3 5 13 9 12 13 12 8 10 13 19 6 6 7 6 3 7 8 11 nan
nan 11 20 16 4 8 12 13 9 0 2 4 3 14 13 12 10 13 21 15 4 11 9 12 14 14 8 7 15 15 8 14 15 14 9 8 7 12 8 13 8 5 7 17 nan
nan 30 26 9 5 9 12 11 10 -2 4 4 6 10 5 9 13 11 18 17 12 18 19 14 9 12 18 13 8 13 9 6 7 5 9 10 9 10 2 2 13 9 16 14 nan
nan 31 13 14 11 6 11 10 7 5 1 10 11 10 4 11 13 6 10 12 16 19 13 13 9 2 5 22 17 8 14 9 1 5 12 14 7 8 14 7 8 15 16 9 nan
nan 14 13 10 9 9 9 5 -4 9 6 16 16 0 7 8 7 9 12 4 13 9 8 7 11 8 5 13 24 19 5 13 16 10 6 8 9 10 17 21 9 18 12 8 nan
nan 10 13 9 4 8 9 -2 1 4 18 14 4 5 12 11 11 9 8 4 7 4 7 18 15 6 11 9 6 13 8 5 11 9 9 7 10 18 22 18 18 15 10 8 nan
nan 12 10 9 8 7 -2 1 9 3 12 12 7 13 11 11 11 13 14 17 6 5 10 12 9 12 11 7 8 7 19 16 12 8 1 7 5 12 16 21 22 17 10 9 nan
nan 13 9 7 9 7 2 5 6 13 14 6 7 9 12 14 12 9 10 11 12 7 12 9 10 9 15 18 15 10 17 15 6 18 12 1 3 3 3 12 19 17 9 10 nan
nan 10 12 6 6 2 10 8 7 9 10 10 11 12 11 7 5 9 8 14 13 7 14 9 10 6 1 1 8 0 2 10 18 14 12 8 6 3 18 17 15 10 10 9 nan
nan 7 9 4 3 7 12 8 2 13 12 12 9 5 11 7 8 7 6 15 15 16 5 6 9 7 4 6 11 6 2 2 6 14 12 3 10 13 14 14 12 9 10 9 nan
nan 10 7 8 5 12 13 9 8 9 9 9 2 12 13 11 8 4 11 9 12 12 1 3 6 10 15 29 18 6 9 10 10 8 12 16 0 11 17 14 15 12 8 8 nan
nan nan nan nan nan nan nan nan nan nan nan nan nan nan nan nan nan nan nan nan nan nan nan nan nan nan nan nan nan nan nan nan nan nan nan nan nan nan nan nan nan nan nan nan nan
CAPE
8 7 9 12 13 10 11 9 3 1 1 0 1 1 2 3 3 0 0 0 0 0 0 0 0 0 0 0 0 0 0 0 0 0 0 0 0 0 0 0 0 0 1 0 0
12 12 9 12 11 14 13 10 8 7 4 3 1 0 1 3 0 0 0 0 0 0 0 0 0 0 0 0 0 0 0 0 0 0 0 0 0 0 0 0 0 0 0 0 0
13 17 8 13 10 16 15 12 8 8 8 5 2 1 1 0 0 0 0 0 0 0 0 0 0 0 0 0 0 1 0 0 0 0 0 0 0 0 0 0 0 0 0 0 0
3 5 7 7 6 7 8 8 8 6 7 4 2 1 1 0 0 0 0 0 0 0 0 0 0 0 0 0 0 0 0 0 0 0 0 0 0 0 0 0 0 0 0 0 0
9 9 5 2 2 2 2 2 2 2 3 3 3 6 0 0 0 0 0 0 0 0 0 0 0 0 0 0 0 0 0 0 0 0 0 0 0 0 0 0 0 0 0 0 0
15 8 4 3 2 2 3 2 2 1 1 3 9 6 9 1 0 0 0 0 0 0 0 0 0 0 0 0 0 0 0 0 0 0 0 0 0 0 0 0 0 0 0 0 0
14 3 0 0 1 0 3 1 0 2 2 2 7 4 7 0 0 0 0 0 0 0 0 0 0 0 0 0 0 0 0 0 0 0 0 0 0 0 0 0 0 0 0 0 0
21 12 2 1 0 1 2 0 0 2 2 0 5 9 2 0 0 0 0 0 0 0 0 0 0 0 0 0 0 0 0 0 0 0 0 0 0 0 0 0 0 0 0 0 0
15 12 8 5 7 6 9 4 3 0 0 0 0 0 0 0 0 0 0 0 0 0 0 0 0 0 0 0 0 0 0 0 0 0 0 0 0 0 0 0 0 0 0 0 0
15 10 7 7 8 8 9 1 0 0 0 0 0 1 0 0 0 0 0 0 0 0 0 0 0 0 0 0 0 0 0 0 0 0 0 0 0 0 0 0 0 0 0 0 0
5 10 15 16 14 8 2 0 0 0 1 0 0 0 0 0 0 0 0 0 0 0 0 0 0 0 0 0 0 0 0 0 0 0 0 0 0 0 0 0 0 0 0 0 0
3 7 6 7 5 1 0 0 1 0 0 0 0 0 0 0 0 0 0 0 0 0 0 0 0 0 0 0 0 0 0 0 0 0 0 0 0 0 0 0 0 0 0 0 0
4 4 7 5 0 0 0 0 0 0 0 0 0 0 0 0 0 0 0 0 0 0 0 0 0 0 0 0 0 0 0 0 0 0 0 0 0 0 0 0 0 0 0 0 0
4 6 4 4 0 0 0 0 1 3 0 0 6 4 0 0 0 0 0 0 0 0 0 0 0 0 0 0 0 0 0 0 0 0 0 0 0 0 0 0 0 0 0 0 0
2 6 4 0 0 0 0 0 0 0 1 1 0 0 0 0 0 1 0 0 0 0 0 0 0 0 0 0 0 0 0 0 0 0 0 0 0 0 0 0 0 0 0 0 0
1 3 5 0 0 0 0 0 0 9 25 39 21 4 0 0 0 0 0 2 1 0 0 0 0 0 0 0 0 0 0 0 0 0 0 0 0 0 0 0 0 0 0 0 0
3 0 1 0 0 0 0 0 3 0 7 7 0 4 7 14 9 12 1 12 27 50 3 2 2 0 0 0 0 0 0 0 0 0 0 0 0 0 0 0 0 0 0 0 58
3 0 0 0 0 0 0 0 11 4 5 1 0 8 16 6 0 5 5 0 0 1 0 5 1 0 0 0 0 0 0 0 0 0 0 0 0 0 0 0 0 0 0 308 398
0 0 0 0 0 0 0 0 9 24 0 3 1 0 0 10 8 0 3 6 26 75 89 69 14 1 0 0 0 0 0 0 0 0 0 0 0 0 0 0 0 0 1 352 399
1 0 0 0 0 0 0 7 55 4 33 14 40 35 30 0 2 3 9 78 117 141 35 45 0 0 0 0 0 0 0 0 0 0 0 0 0 0 0 0 0 0 194 278 340
0 0 0 0 0 2 7 3 4 36 129 80 0 28 5 15 21 17 17 40 109 83 20 4 1 0 0 0 0 0 0 0 0 0 0 0 0 0 0 0 0 2 262 263 300
0 0 0 0 0 6 3 5 0 9 99 103 27 56 89 4 19 9 10 19 1 85 8 19 22 0 0 0 0 0 0 0 0 0 0 0 0 0 22 0 0 10 373 275 358
2 1 10 0 7 5 3 0 0 18 43 37 64 52 38 50 39 68 20 35 54 30 8 30 0 4 0 0 9 4 0 0 0 0 0 0 0 0 0 69 83 298 359 397 348
0 1 0 0 0 1 0 0 0 26 27 5 18 15 42 0 5 30 11 51 76 5 95 11 0 2 10 23 0 4 0 0 0 0 0 0 0 0 0 216 329 368 347 316 294
1 0 0 0 0 0 5 9 26 5 16 24 35 12 8 6 0 0 28 46 75 20 57 3 31 5 9 6 9 0 0 0 0 0 0 0 0 3 216 421 460 311 279 241 284
15 19 6 1 0 5 24 22 11 28 45 11 21 40 8 3 24 5 3 6 1 44 77 14 129 42 5 11 13 0 0 0 0 0 0 0 0 21 142 539 518 348 293 290 314
0 1 7 1 1 2 3 18 21 31 2 32 12 26 19 47 15 12 0 0 1 0 0 2 31 29 21 20 6 0 0 0 0 0 0 0 0 174 100 124 193 215 261 272 381